Alpena, MI

4:03 PM EDT on August 23, 2017 (GMT -0400)
Alpena County Regional

Weather History for KAPN - January, 2012

Change the Weather History Date:

Saturday, January 14, 2012

  Actual Average Record
Temperature  
Mean Temperature 11 °F 19 °F  
Max Temperature 17 °F 27 °F 47 °F (1950)
Min Temperature 4 °F 12 °F -17 °F (1965)
Degree Days  
Heating Degree Days 54 46  
Month to date heating degree days 525 633  
Since 1 July heating degree days 3157 3694  
Moisture  
Dew Point 4 °F    
Average Humidity 75    
Maximum Humidity 91    
Minimum Humidity 59    
Precipitation  
Precipitation T in 0.06 in 1.24 in (1940)
Month to date precipitation 0.70 0.81  
Year to date precipitation 0.70 0.81  
Snow  
Snow T in 0.70 in 3.80 in (1983)
Month to date snowfall 10.0 9.8  
Since 1 July snowfall 15.2 37.1  
Snow Depth 5.00 in    
Sea Level Pressure  
Sea Level Pressure 30.17 in    
Wind  
Wind Speed 3 mph (North)    
Max Wind Speed 13 mph    
Max Gust Speed 14 mph    
Visibility 10 miles    
Events      
T = Trace of Precipitation, MM = Missing Value Source: NWS Daily Summary

Daily Weather History Graph

Daily Weather History Graph

Search for Another Location

Airport or City:

Trip Planner

Search our weather history database for the weather conditions in past years. The results will help you decide how hot, cold, wet, or windy it might be!

Date:

Astronomy

Jan. 14, 2012 Rise Set
Actual Time 8:09 AM EST 5:16 PM EST
Civil Twilight 7:37 AM EST 5:49 PM EST
Nautical Twilight 7:00 AM EST 6:26 PM EST
Astronomical Twilight 6:25 AM EST 7:01 PM EST
Moon 11:57 PM EST (1/14) 10:36 AM EST (1/14)
Length of Visible Light 10h 12m
Length of Day
9h 06m
Waning Gibbous, 69% of the Moon is Illuminated
Jan 14
Waning Gibbous
Jan 16
Last Quarter
Jan 23
New
Jan 30
First Quarter
Feb 7
Full

Hourly Weather History & Observations

Time (EST) Temp. Windchill Dew Point Humidity Pressure Visibility Wind Dir Wind Speed Gust Speed Precip Events Conditions
12:54 AM 10.9 °F 2.9 °F 6.1 °F 81% 29.99 in 10.0 mi NNW 4.6 mph - N/A   Overcast
1:54 AM 10.9 °F 1.4 °F 3.0 °F 70% 30.01 in 10.0 mi North 5.8 mph - N/A   Overcast
2:54 AM 10.9 °F 2.9 °F 5.0 °F 77% 30.03 in 10.0 mi North 4.6 mph - N/A   Overcast
3:54 AM 10.9 °F 1.4 °F 3.0 °F 70% 30.05 in 10.0 mi North 5.8 mph - N/A   Overcast
4:54 AM 10.0 °F -3.7 °F 3.0 °F 73% 30.07 in 10.0 mi North 10.4 mph - N/A   Overcast
5:54 AM 10.0 °F -0.9 °F 3.0 °F 73% 30.09 in 10.0 mi NNW 6.9 mph - N/A   Overcast
6:54 AM 9.0 °F -2.2 °F 3.0 °F 77% 30.11 in 10.0 mi NNE 6.9 mph - N/A   Overcast
7:54 AM 9.0 °F 2.4 °F 1.9 °F 73% 30.14 in 10.0 mi NNW 3.5 mph - N/A   Overcast
8:54 AM 7.0 °F 0.1 °F 1.9 °F 80% 30.15 in 10.0 mi NNW 3.5 mph - N/A   Mostly Cloudy
9:54 AM 9.0 °F 0.6 °F 1.9 °F 73% 30.18 in 10.0 mi NNW 4.6 mph - N/A   Overcast
10:54 AM 12.0 °F - 3.9 °F 70% 30.19 in 10.0 mi Calm Calm - N/A   Overcast
12:01 PM 10.4 °F -1.5 °F 3.2 °F 73% 30.13 in 10.0 mi NE 8.1 mph - N/A   Scattered Clouds
12:54 PM 15.1 °F - 3.9 °F 61% 30.18 in 10.0 mi Calm Calm - N/A   Mostly Cloudy
1:54 PM 14.0 °F 5.1 °F 5.0 °F 67% 30.18 in 10.0 mi NNE 5.8 mph - N/A   Overcast
4:54 PM 12.0 °F - 3.9 °F 70% 30.22 in 10.0 mi Calm Calm - N/A   Clear
5:54 PM 9.0 °F - 6.1 °F 88% 30.24 in 10.0 mi Calm Calm - N/A   Overcast
6:54 PM 8.1 °F - 3.9 °F 83% 30.26 in 10.0 mi Calm Calm - N/A   Overcast
7:54 PM 7.0 °F - 3.9 °F 87% 30.27 in 10.0 mi Calm Calm - N/A   Overcast
8:54 PM 8.1 °F - 5.0 °F 87% 30.29 in 10.0 mi Calm Calm - N/A   Overcast
9:54 PM 7.0 °F - 3.9 °F 87% 30.30 in 10.0 mi Calm Calm - N/A   Overcast
10:54 PM 6.1 °F - 3.0 °F 87% 30.31 in 10.0 mi Calm Calm - N/A   Overcast
11:54 PM 5.0 °F - 3.0 °F 92% 30.31 in 10.0 mi Calm Calm - N/A   Overcast